TAM3213 SBSL-SBGR

Flight info

Callsign TAM3213
Flight time 3h 7m
Altitude 36000
Route TEGEP UZ4 UKDAL UM654 REINA UN741 NISNI UZ38 VUNOX
Aircraft A320/M-SDE3FGHIRWY/LB1

Departure

Time 2026-04-17 19:26
Airport Marechal Cunha Machado International Airport (SBSL)

Arrival

Time 2026-04-17 22:34
Airport São Paulo/Guarulhos–Governor André Franco Montoro International Airport (SBGR)
Time Latitude Longitude Altitude Speed Heading
2026-04-17 18:45 -2.58443 -44.23655 181 ft 0 kts 340°
2026-04-17 19:16 -2.58448 -44.23653 181 ft 2 kts 340°
2026-04-17 19:16 -2.58462 -44.23648 181 ft 2 kts 340°
2026-04-17 19:16 -2.58477 -44.23643 181 ft 2 kts 340°
2026-04-17 19:17 -2.58491 -44.23637 181 ft 2 kts 357°
2026-04-17 19:17 -2.58506 -44.23641 181 ft 2 kts 36°
2026-04-17 19:17 -2.58514 -44.23650 181 ft 0 kts 66°
2026-04-17 19:17 -2.58516 -44.23656 181 ft 1 kts 72°
2026-04-17 19:18 -2.58516 -44.23658 181 ft 0 kts 71°
2026-04-17 19:19 -2.58516 -44.23657 181 ft 0 kts 71°
2026-04-17 19:19 -2.58509 -44.23640 181 ft 4 kts 70°
2026-04-17 19:20 -2.58494 -44.23597 182 ft 8 kts 70°
2026-04-17 19:20 -2.58472 -44.23539 181 ft 9 kts 70°
2026-04-17 19:20 -2.58450 -44.23481 181 ft 8 kts 69°
2026-04-17 19:20 -2.58464 -44.23424 181 ft 8 kts 123°
2026-04-17 19:21 -2.58509 -44.23389 181 ft 8 kts 182°
2026-04-17 19:21 -2.58561 -44.23420 182 ft 9 kts 218°
2026-04-17 19:21 -2.58613 -44.23462 181 ft 10 kts 218°
2026-04-17 19:21 -2.58671 -44.23509 181 ft 11 kts 219°
2026-04-17 19:22 -2.58734 -44.23559 181 ft 12 kts 218°
2026-04-17 19:22 -2.58803 -44.23615 181 ft 13 kts 219°
2026-04-17 19:22 -2.58876 -44.23673 181 ft 13 kts 219°
2026-04-17 19:22 -2.58952 -44.23735 181 ft 14 kts 219°
2026-04-17 19:23 -2.59032 -44.23799 181 ft 14 kts 219°
2026-04-17 19:23 -2.59199 -44.23934 181 ft 15 kts 219°
2026-04-17 19:23 -2.59287 -44.24005 181 ft 16 kts 219°
2026-04-17 19:24 -2.59376 -44.24077 181 ft 16 kts 219°
2026-04-17 19:24 -2.59468 -44.24150 181 ft 17 kts 219°
2026-04-17 19:24 -2.59561 -44.24226 181 ft 17 kts 219°
2026-04-17 19:24 -2.59646 -44.24302 181 ft 13 kts 241°
2026-04-17 19:25 -2.59693 -44.24349 181 ft 7 kts 157°
2026-04-17 19:25 -2.59675 -44.24314 181 ft 8 kts 34°
2026-04-17 19:25 -2.59523 -44.24193 181 ft 65 kts 39°
2026-04-17 19:25 -2.58949 -44.23733 182 ft 142 kts 39°
2026-04-17 19:26 -2.58067 -44.23029 576 ft 168 kts 41°
2026-04-17 19:26 -2.57173 -44.22310 1232 ft 168 kts 41°
2026-04-17 19:26 -2.56216 -44.21537 1599 ft 185 kts 41°
2026-04-17 19:26 -2.55180 -44.20704 1995 ft 202 kts 40°
2026-04-17 19:27 -2.54024 -44.19766 2320 ft 224 kts 44°
2026-04-17 19:27 -2.53172 -44.18484 3018 ft 226 kts 77°
2026-04-17 19:27 -2.53220 -44.16946 3817 ft 227 kts 108°
2026-04-17 19:27 -2.54097 -44.15645 4549 ft 233 kts 140°
2026-04-17 19:28 -2.55584 -44.14992 5270 ft 241 kts 168°
2026-04-17 19:28 -2.57265 -44.14784 5894 ft 249 kts 169°
2026-04-17 19:28 -2.59046 -44.14547 6304 ft 266 kts 169°
2026-04-17 19:28 -2.60931 -44.14287 6811 ft 278 kts 169°
2026-04-17 19:29 -2.62860 -44.14020 7496 ft 281 kts 169°
2026-04-17 19:29 -2.64811 -44.13749 8184 ft 284 kts 169°
2026-04-17 19:29 -2.66785 -44.13475 8846 ft 288 kts 169°
2026-04-17 19:29 -2.68783 -44.13197 9488 ft 291 kts 169°
2026-04-17 19:30 -2.70806 -44.12916 10099 ft 295 kts 170°
2026-04-17 19:30 -2.72893 -44.12624 10495 ft 308 kts 169°
2026-04-17 19:30 -2.75041 -44.12324 11034 ft 313 kts 169°
2026-04-17 19:30 -2.77183 -44.12026 11630 ft 316 kts 170°
2026-04-17 19:31 -2.79376 -44.11721 12220 ft 318 kts 169°
2026-04-17 19:31 -2.81590 -44.11439 12786 ft 322 kts 174°
2026-04-17 19:31 -2.83852 -44.11470 13323 ft 327 kts 184°
2026-04-17 19:31 -2.86109 -44.11907 13838 ft 333 kts 194°
2026-04-17 19:32 -2.88291 -44.12749 14322 ft 339 kts 204°
2026-04-17 19:32 -2.90438 -44.13764 14815 ft 342 kts 201°
2026-04-17 19:32 -2.92691 -44.14555 15301 ft 344 kts 195°
2026-04-17 19:32 -2.95005 -44.15214 15789 ft 346 kts 193°
2026-04-17 19:33 -2.97345 -44.15841 16286 ft 348 kts 193°
2026-04-17 19:33 -2.99702 -44.16462 16756 ft 351 kts 193°
2026-04-17 19:33 -3.02081 -44.17083 17198 ft 353 kts 193°
2026-04-17 19:33 -3.04481 -44.17708 17616 ft 357 kts 193°
2026-04-17 19:34 -3.06902 -44.18338 18039 ft 359 kts 193°
2026-04-17 19:34 -3.09337 -44.18972 18473 ft 361 kts 193°
2026-04-17 19:34 -3.11785 -44.19609 18898 ft 363 kts 193°
2026-04-17 19:34 -3.14210 -44.20242 19304 ft 365 kts 193°
2026-04-17 19:35 -3.16682 -44.20886 19717 ft 366 kts 193°
2026-04-17 19:35 -3.19162 -44.21532 20125 ft 368 kts 193°
2026-04-17 19:35 -3.21653 -44.22181 20515 ft 369 kts 193°
2026-04-17 19:35 -3.24164 -44.22792 20899 ft 370 kts 190°
2026-04-17 19:36 -3.26725 -44.23170 21273 ft 371 kts 184°
2026-04-17 19:36 -3.29318 -44.23282 21634 ft 372 kts 179°
2026-04-17 19:36 -3.31923 -44.23263 21990 ft 374 kts 178°
2026-04-17 19:36 -3.34539 -44.23222 22338 ft 375 kts 178°
2026-04-17 19:37 -3.37168 -44.23182 22677 ft 378 kts 178°
2026-04-17 19:37 -3.39812 -44.23144 23013 ft 380 kts 178°
2026-04-17 19:37 -3.42471 -44.23108 23350 ft 382 kts 178°
2026-04-17 19:37 -3.45142 -44.23075 23692 ft 383 kts 179°
2026-04-17 19:38 -3.47823 -44.23042 24041 ft 385 kts 179°
2026-04-17 19:38 -3.50513 -44.23009 24385 ft 386 kts 179°
2026-04-17 19:38 -3.53215 -44.22979 24711 ft 388 kts 179°
2026-04-17 19:38 -3.55893 -44.22948 25014 ft 390 kts 179°
2026-04-17 19:39 -3.58624 -44.22916 25312 ft 392 kts 179°
2026-04-17 19:39 -3.61373 -44.22883 25597 ft 395 kts 179°
2026-04-17 19:39 -3.64138 -44.22850 25885 ft 397 kts 179°
2026-04-17 19:39 -3.66914 -44.22819 26187 ft 398 kts 179°
2026-04-17 19:40 -3.69704 -44.22788 26486 ft 400 kts 179°
2026-04-17 19:40 -3.72506 -44.22758 26774 ft 402 kts 179°
2026-04-17 19:40 -3.75321 -44.22728 27048 ft 404 kts 179°
2026-04-17 19:40 -3.78150 -44.22698 27313 ft 406 kts 179°
2026-04-17 19:41 -3.80994 -44.22669 27580 ft 408 kts 179°
2026-04-17 19:41 -3.83854 -44.22639 27850 ft 410 kts 179°
2026-04-17 19:41 -3.86725 -44.22607 28121 ft 412 kts 179°
2026-04-17 19:41 -3.89607 -44.22575 28395 ft 413 kts 180°
2026-04-17 19:42 -3.92501 -44.22544 28668 ft 415 kts 180°
2026-04-17 19:42 -3.95406 -44.22512 28935 ft 417 kts 180°
2026-04-17 19:42 -3.98322 -44.22482 29204 ft 418 kts 180°
2026-04-17 19:42 -4.01249 -44.22451 29475 ft 420 kts 180°
2026-04-17 19:43 -4.04143 -44.22421 29740 ft 421 kts 180°
2026-04-17 19:43 -4.07089 -44.22390 30000 ft 422 kts 180°
2026-04-17 19:43 -4.10058 -44.22358 30260 ft 424 kts 180°
2026-04-17 19:43 -4.13010 -44.22327 30516 ft 425 kts 180°
2026-04-17 19:44 -4.15981 -44.22295 30773 ft 426 kts 180°
2026-04-17 19:44 -4.18961 -44.22263 31030 ft 427 kts 180°
2026-04-17 19:44 -4.21946 -44.22228 31279 ft 428 kts 180°
2026-04-17 19:44 -4.24939 -44.22194 31527 ft 429 kts 180°
2026-04-17 19:45 -4.27933 -44.22160 31832 ft 428 kts 180°
2026-04-17 19:45 -4.30917 -44.22125 32176 ft 427 kts 180°
2026-04-17 19:45 -4.33889 -44.22090 32522 ft 425 kts 180°
2026-04-17 19:45 -4.36856 -44.22057 32879 ft 423 kts 180°
2026-04-17 19:46 -4.39806 -44.22023 33251 ft 422 kts 180°
2026-04-17 19:46 -4.42743 -44.21990 33629 ft 420 kts 180°
2026-04-17 19:46 -4.45668 -44.21958 34009 ft 418 kts 180°
2026-04-17 19:46 -4.48550 -44.21926 34382 ft 416 kts 181°
2026-04-17 19:47 -4.51446 -44.21893 34750 ft 414 kts 180°
2026-04-17 19:47 -4.54331 -44.21861 35096 ft 412 kts 180°
2026-04-17 19:47 -4.57204 -44.21830 35412 ft 411 kts 180°
2026-04-17 19:47 -4.60074 -44.21798 35600 ft 412 kts 180°
2026-04-17 19:48 -4.62965 -44.21767 35698 ft 415 kts 180°
2026-04-17 19:48 -4.68830 -44.21700 35756 ft 424 kts 180°
2026-04-17 19:49 -4.74828 -44.21634 35749 ft 434 kts 180°
2026-04-17 19:49 -4.80947 -44.21565 35748 ft 442 kts 180°
2026-04-17 19:50 -4.87133 -44.21494 35750 ft 449 kts 180°
2026-04-17 19:50 -4.93424 -44.21423 35756 ft 450 kts 180°
2026-04-17 19:51 -4.99711 -44.21352 35763 ft 450 kts 180°
2026-04-17 19:51 -5.05991 -44.21282 35766 ft 449 kts 180°
2026-04-17 19:52 -5.12271 -44.21211 35761 ft 450 kts 180°
2026-04-17 19:52 -5.18563 -44.21141 35759 ft 451 kts 180°
2026-04-17 19:53 -5.24856 -44.21070 35761 ft 451 kts 180°
2026-04-17 19:53 -5.31110 -44.20999 35763 ft 451 kts 180°
2026-04-17 19:54 -5.37404 -44.20929 35766 ft 451 kts 180°
2026-04-17 19:54 -5.43698 -44.20857 35768 ft 450 kts 180°
2026-04-17 19:55 -5.49985 -44.20787 35766 ft 450 kts 180°
2026-04-17 19:55 -5.56273 -44.20717 35766 ft 450 kts 180°
2026-04-17 19:56 -5.62558 -44.20646 35767 ft 450 kts 180°
2026-04-17 19:56 -5.68843 -44.20576 35768 ft 450 kts 180°
2026-04-17 19:57 -5.75128 -44.20506 35770 ft 450 kts 180°
2026-04-17 19:57 -5.81379 -44.20437 35770 ft 451 kts 180°
2026-04-17 19:58 -5.87685 -44.20366 35769 ft 452 kts 180°
2026-04-17 19:58 -5.93986 -44.20295 35769 ft 451 kts 180°
2026-04-17 19:59 -6.00285 -44.20228 35768 ft 451 kts 180°
2026-04-17 19:59 -6.06568 -44.20163 35770 ft 450 kts 180°
2026-04-17 20:00 -6.12853 -44.20097 35770 ft 450 kts 180°
2026-04-17 20:00 -6.19141 -44.20031 35777 ft 450 kts 180°
2026-04-17 20:01 -6.25422 -44.19965 35789 ft 450 kts 180°
2026-04-17 20:01 -6.31655 -44.19900 35798 ft 449 kts 180°
2026-04-17 20:02 -6.37933 -44.19836 35796 ft 450 kts 180°
2026-04-17 20:02 -6.44217 -44.19771 35791 ft 449 kts 180°
2026-04-17 20:03 -6.50487 -44.19706 35787 ft 448 kts 180°
2026-04-17 20:03 -6.56748 -44.19641 35784 ft 448 kts 180°
2026-04-17 20:04 -6.63011 -44.19578 35783 ft 448 kts 180°
2026-04-17 20:04 -6.69268 -44.19514 35782 ft 448 kts 180°
2026-04-17 20:05 -6.75525 -44.19449 35775 ft 448 kts 180°
2026-04-17 20:05 -6.81739 -44.19385 35765 ft 448 kts 180°
2026-04-17 20:06 -6.88001 -44.19320 35763 ft 449 kts 180°
2026-04-17 20:06 -6.94270 -44.19256 35759 ft 449 kts 180°
2026-04-17 20:07 -7.00542 -44.19191 35755 ft 449 kts 180°
2026-04-17 20:07 -7.06807 -44.19121 35758 ft 449 kts 179°
2026-04-17 20:08 -7.13061 -44.19052 35769 ft 447 kts 179°
2026-04-17 20:08 -7.19302 -44.18983 35781 ft 446 kts 179°
2026-04-17 20:09 -7.25543 -44.18914 35789 ft 447 kts 179°
2026-04-17 20:09 -7.31743 -44.18846 35797 ft 447 kts 179°
2026-04-17 20:10 -7.37981 -44.18777 35801 ft 446 kts 179°
2026-04-17 20:10 -7.44243 -44.18709 35799 ft 446 kts 179°
2026-04-17 20:11 -7.50488 -44.18642 35802 ft 447 kts 179°
2026-04-17 20:11 -7.56729 -44.18574 35808 ft 446 kts 179°
2026-04-17 20:12 -7.62920 -44.18507 35808 ft 446 kts 179°
2026-04-17 20:12 -7.69150 -44.18439 35808 ft 446 kts 179°
2026-04-17 20:13 -7.75375 -44.18370 35809 ft 446 kts 179°
2026-04-17 20:13 -7.81607 -44.18303 35812 ft 446 kts 179°
2026-04-17 20:14 -7.87834 -44.18235 35813 ft 446 kts 179°
2026-04-17 20:14 -7.94044 -44.18165 35809 ft 444 kts 179°
2026-04-17 20:15 -8.00260 -44.18095 35809 ft 445 kts 179°
2026-04-17 20:15 -8.06474 -44.18027 35808 ft 445 kts 179°
2026-04-17 20:16 -8.12654 -44.17959 35809 ft 445 kts 179°
2026-04-17 20:16 -8.18871 -44.17891 35806 ft 446 kts 179°
2026-04-17 20:17 -8.25087 -44.17821 35798 ft 445 kts 179°
2026-04-17 20:17 -8.31300 -44.17753 35796 ft 445 kts 179°
2026-04-17 20:18 -8.37511 -44.17685 35793 ft 445 kts 179°
2026-04-17 20:18 -8.43716 -44.17617 35792 ft 444 kts 179°
2026-04-17 20:19 -8.49922 -44.17549 35789 ft 444 kts 179°
2026-04-17 20:19 -8.56130 -44.17481 35786 ft 444 kts 179°
2026-04-17 20:20 -8.62289 -44.17414 35786 ft 444 kts 179°
2026-04-17 20:20 -8.68504 -44.17346 35782 ft 444 kts 179°
2026-04-17 20:21 -8.74711 -44.17277 35775 ft 444 kts 179°
2026-04-17 20:21 -8.80914 -44.17210 35770 ft 444 kts 179°
2026-04-17 20:22 -8.87122 -44.17142 35766 ft 444 kts 179°
2026-04-17 20:22 -8.93280 -44.17075 35768 ft 444 kts 179°
2026-04-17 20:23 -8.99482 -44.17006 35767 ft 444 kts 179°
2026-04-17 20:23 -9.05678 -44.16938 35767 ft 443 kts 179°
2026-04-17 20:24 -9.11892 -44.16871 35773 ft 444 kts 179°
2026-04-17 20:24 -9.18092 -44.16803 35777 ft 443 kts 179°
2026-04-17 20:25 -9.24250 -44.16735 35781 ft 443 kts 179°
2026-04-17 20:25 -9.30432 -44.16669 35788 ft 443 kts 179°
2026-04-17 20:26 -9.36618 -44.16604 35798 ft 443 kts 179°
2026-04-17 20:26 -9.42806 -44.16536 35809 ft 443 kts 179°
2026-04-17 20:27 -9.48996 -44.16468 35819 ft 443 kts 179°
2026-04-17 20:27 -9.55187 -44.16399 35829 ft 443 kts 179°
2026-04-17 20:28 -9.61332 -44.16331 35837 ft 443 kts 179°
2026-04-17 20:28 -9.67516 -44.16263 35845 ft 443 kts 179°
2026-04-17 20:29 -9.73696 -44.16197 35854 ft 443 kts 179°
2026-04-17 20:29 -9.79876 -44.16130 35853 ft 442 kts 179°
2026-04-17 20:30 -9.89144 -44.16029 35827 ft 442 kts 179°
2026-04-17 20:30 -9.95323 -44.15959 35813 ft 443 kts 179°
2026-04-17 20:31 -10.01512 -44.15890 35801 ft 442 kts 179°
2026-04-17 20:31 -10.07654 -44.15820 35800 ft 443 kts 179°
2026-04-17 20:32 -10.13870 -44.15751 35808 ft 443 kts 179°
2026-04-17 20:32 -10.20024 -44.15683 35814 ft 442 kts 179°
2026-04-17 20:33 -10.26199 -44.15615 35822 ft 441 kts 179°
2026-04-17 20:33 -10.32363 -44.15548 35829 ft 442 kts 179°
2026-04-17 20:34 -10.38529 -44.15480 35838 ft 442 kts 179°
2026-04-17 20:34 -10.44694 -44.15412 35847 ft 441 kts 179°
2026-04-17 20:35 -10.50855 -44.15344 35854 ft 441 kts 179°
2026-04-17 20:35 -10.56978 -44.15274 35859 ft 441 kts 179°
2026-04-17 20:36 -10.63144 -44.15201 35864 ft 442 kts 179°
2026-04-17 20:36 -10.69309 -44.15129 35866 ft 441 kts 179°
2026-04-17 20:37 -10.75463 -44.15059 35864 ft 441 kts 179°
2026-04-17 20:37 -10.81618 -44.14990 35857 ft 441 kts 179°
2026-04-17 20:38 -10.87773 -44.14919 35848 ft 441 kts 179°
2026-04-17 20:38 -10.93923 -44.14850 35843 ft 440 kts 179°
2026-04-17 20:39 -11.00052 -44.14784 35840 ft 440 kts 179°
2026-04-17 20:39 -11.06189 -44.14720 35838 ft 439 kts 179°
2026-04-17 20:40 -11.12338 -44.14655 35838 ft 440 kts 179°
2026-04-17 20:40 -11.18460 -44.14587 35837 ft 440 kts 179°
2026-04-17 20:41 -11.24599 -44.14515 35834 ft 440 kts 179°
2026-04-17 20:41 -11.30748 -44.14445 35836 ft 440 kts 179°
2026-04-17 20:42 -11.36898 -44.14375 35842 ft 440 kts 179°
2026-04-17 20:42 -11.43044 -44.14305 35844 ft 440 kts 179°
2026-04-17 20:43 -11.49188 -44.14236 35839 ft 440 kts 179°
2026-04-17 20:43 -11.55290 -44.14168 35844 ft 440 kts 179°
2026-04-17 20:44 -11.61434 -44.14099 35848 ft 440 kts 179°
2026-04-17 20:44 -11.67580 -44.14030 35849 ft 440 kts 179°
2026-04-17 20:45 -11.73722 -44.13960 35851 ft 440 kts 180°
2026-04-17 20:45 -11.79866 -44.13891 35854 ft 440 kts 180°
2026-04-17 20:46 -11.86016 -44.13823 35860 ft 441 kts 180°
2026-04-17 20:46 -11.92170 -44.13753 35866 ft 440 kts 180°
2026-04-17 20:47 -11.98321 -44.13684 35870 ft 440 kts 180°
2026-04-17 20:47 -12.04427 -44.13615 35878 ft 440 kts 180°
2026-04-17 20:48 -12.10576 -44.13548 35889 ft 440 kts 180°
2026-04-17 20:48 -12.16732 -44.13479 35898 ft 440 kts 180°
2026-04-17 20:49 -12.22868 -44.13406 35905 ft 440 kts 180°
2026-04-17 20:49 -12.29009 -44.13332 35907 ft 440 kts 180°
2026-04-17 20:50 -12.35115 -44.13260 35906 ft 440 kts 180°
2026-04-17 20:50 -12.41264 -44.13187 35903 ft 440 kts 180°
2026-04-17 20:51 -12.47410 -44.13114 35902 ft 440 kts 180°
2026-04-17 20:51 -12.53558 -44.13043 35901 ft 440 kts 180°
2026-04-17 20:52 -12.59695 -44.12971 35897 ft 439 kts 180°
2026-04-17 20:52 -12.65829 -44.12912 35895 ft 439 kts 180°
2026-04-17 20:53 -12.71929 -44.12885 35895 ft 440 kts 181°
2026-04-17 20:53 -12.78070 -44.12862 35899 ft 440 kts 180°
2026-04-17 20:54 -12.84207 -44.12837 35906 ft 440 kts 180°
2026-04-17 20:54 -12.90355 -44.12809 35905 ft 440 kts 180°
2026-04-17 20:55 -12.96496 -44.12762 35900 ft 440 kts 180°
2026-04-17 20:55 -13.02640 -44.12670 35894 ft 440 kts 180°
2026-04-17 20:56 -13.08770 -44.12579 35895 ft 439 kts 180°
2026-04-17 20:56 -13.14878 -44.12492 35892 ft 439 kts 180°
2026-04-17 20:57 -13.21026 -44.12408 35894 ft 440 kts 180°
2026-04-17 20:57 -13.27176 -44.12324 35889 ft 441 kts 180°
2026-04-17 20:58 -13.33337 -44.12241 35895 ft 442 kts 180°
2026-04-17 20:58 -13.39510 -44.12163 35897 ft 442 kts 180°
2026-04-17 20:59 -13.45687 -44.12086 35902 ft 443 kts 180°
2026-04-17 20:59 -13.51863 -44.12008 35901 ft 442 kts 181°
2026-04-17 21:00 -13.58034 -44.11931 35902 ft 442 kts 181°
2026-04-17 21:00 -13.64161 -44.11856 35906 ft 442 kts 181°
2026-04-17 21:01 -13.70342 -44.11779 35906 ft 443 kts 181°
2026-04-17 21:01 -13.76524 -44.11703 35909 ft 443 kts 181°
2026-04-17 21:02 -13.82717 -44.11626 35904 ft 444 kts 181°
2026-04-17 21:02 -13.88917 -44.11547 35900 ft 444 kts 181°
2026-04-17 21:03 -13.95108 -44.11469 35901 ft 443 kts 181°
2026-04-17 21:03 -14.01303 -44.11393 35894 ft 443 kts 181°
2026-04-17 21:04 -14.07494 -44.11318 35891 ft 444 kts 181°
2026-04-17 21:04 -14.13646 -44.11242 35891 ft 444 kts 181°
2026-04-17 21:05 -14.19843 -44.11165 35885 ft 444 kts 181°
2026-04-17 21:05 -14.26040 -44.11089 35881 ft 444 kts 181°
2026-04-17 21:06 -14.32243 -44.11011 35884 ft 444 kts 181°
2026-04-17 21:06 -14.38440 -44.10936 35885 ft 444 kts 181°
2026-04-17 21:07 -14.44638 -44.10862 35888 ft 444 kts 181°
2026-04-17 21:07 -14.50846 -44.10788 35890 ft 445 kts 181°
2026-04-17 21:08 -14.57065 -44.10715 35886 ft 446 kts 181°
2026-04-17 21:08 -14.63238 -44.10639 35887 ft 445 kts 181°
2026-04-17 21:09 -14.69463 -44.10565 35883 ft 446 kts 181°
2026-04-17 21:09 -14.75681 -44.10490 35881 ft 445 kts 181°
2026-04-17 21:10 -14.81889 -44.10415 35885 ft 445 kts 181°
2026-04-17 21:10 -14.88095 -44.10341 35890 ft 445 kts 182°
2026-04-17 21:11 -14.94302 -44.10267 35900 ft 445 kts 182°
2026-04-17 21:11 -15.00515 -44.10194 35905 ft 445 kts 182°
2026-04-17 21:12 -15.06724 -44.10272 35903 ft 444 kts 186°
2026-04-17 21:12 -15.12822 -44.10978 35902 ft 442 kts 192°
2026-04-17 21:13 -15.18839 -44.12357 35899 ft 440 kts 198°
2026-04-17 21:13 -15.24662 -44.14327 35901 ft 438 kts 201°
2026-04-17 21:14 -15.30428 -44.16450 35897 ft 438 kts 201°
2026-04-17 21:14 -15.36184 -44.18572 35906 ft 438 kts 201°
2026-04-17 21:15 -15.41939 -44.20687 35910 ft 438 kts 201°
2026-04-17 21:15 -15.47654 -44.22782 35912 ft 437 kts 201°
2026-04-17 21:16 -15.53402 -44.24891 35913 ft 437 kts 202°
2026-04-17 21:16 -15.59152 -44.27006 35920 ft 437 kts 201°
2026-04-17 21:17 -15.64890 -44.29119 35927 ft 436 kts 202°
2026-04-17 21:17 -15.70619 -44.31230 35933 ft 436 kts 201°
2026-04-17 21:18 -15.76343 -44.33340 35938 ft 435 kts 201°
2026-04-17 21:18 -15.82067 -44.35451 35945 ft 436 kts 202°
2026-04-17 21:19 -15.87793 -44.37566 35949 ft 435 kts 202°
2026-04-17 21:19 -15.93516 -44.39680 35949 ft 436 kts 202°
2026-04-17 21:20 -15.99196 -44.41779 35950 ft 435 kts 202°
2026-04-17 21:20 -16.04903 -44.43890 35954 ft 434 kts 202°
2026-04-17 21:21 -16.10608 -44.46001 35954 ft 434 kts 202°
2026-04-17 21:21 -16.16313 -44.48115 35950 ft 434 kts 202°
2026-04-17 21:22 -16.22021 -44.50230 35948 ft 435 kts 202°
2026-04-17 21:22 -16.27733 -44.52347 35948 ft 434 kts 202°
2026-04-17 21:23 -16.33451 -44.54470 35948 ft 436 kts 202°
2026-04-17 21:23 -16.39183 -44.56598 35945 ft 436 kts 202°
2026-04-17 21:24 -16.44871 -44.58711 35945 ft 436 kts 202°
2026-04-17 21:24 -16.50595 -44.60838 35944 ft 435 kts 202°
2026-04-17 21:25 -16.56313 -44.62965 35941 ft 435 kts 202°
2026-04-17 21:25 -16.62029 -44.65095 35939 ft 436 kts 203°
2026-04-17 21:26 -16.67781 -44.67240 35945 ft 436 kts 203°
2026-04-17 21:26 -16.73472 -44.69362 35946 ft 437 kts 203°
2026-04-17 21:27 -16.79208 -44.71504 35936 ft 436 kts 203°
2026-04-17 21:27 -16.84916 -44.73725 35932 ft 436 kts 206°
2026-04-17 21:28 -16.90402 -44.76406 35929 ft 434 kts 210°
2026-04-17 21:28 -16.95820 -44.79221 35928 ft 435 kts 210°
2026-04-17 21:29 -17.01246 -44.82045 35926 ft 434 kts 210°
2026-04-17 21:29 -17.06658 -44.84864 35923 ft 433 kts 210°
2026-04-17 21:30 -17.12041 -44.87667 35925 ft 433 kts 210°
2026-04-17 21:30 -17.17454 -44.90491 35929 ft 433 kts 210°
2026-04-17 21:31 -17.22856 -44.93309 35931 ft 433 kts 210°
2026-04-17 21:31 -17.28257 -44.96129 35927 ft 433 kts 210°
2026-04-17 21:32 -17.33620 -44.98934 35924 ft 433 kts 210°
2026-04-17 21:32 -17.39025 -45.01760 35923 ft 433 kts 210°
2026-04-17 21:33 -17.44391 -45.04649 35919 ft 432 kts 211°
2026-04-17 21:33 -17.49721 -45.07600 35923 ft 433 kts 211°
2026-04-17 21:34 -17.55045 -45.10544 35926 ft 431 kts 211°
2026-04-17 21:35 -17.63027 -45.14957 35933 ft 431 kts 211°
2026-04-17 21:35 -17.68364 -45.17880 35937 ft 433 kts 210°
2026-04-17 21:36 -17.73768 -45.20667 35941 ft 432 kts 210°
2026-04-17 21:36 -17.79139 -45.23434 35943 ft 432 kts 210°
2026-04-17 21:37 -17.84537 -45.26229 35946 ft 432 kts 210°
2026-04-17 21:37 -17.89929 -45.29030 35945 ft 432 kts 210°
2026-04-17 21:38 -17.95318 -45.31834 35946 ft 431 kts 210°
2026-04-17 21:38 -18.00701 -45.34634 35947 ft 430 kts 211°
2026-04-17 21:39 -18.06080 -45.37437 35947 ft 431 kts 210°
2026-04-17 21:39 -18.11444 -45.40222 35950 ft 430 kts 210°
2026-04-17 21:40 -18.16819 -45.43014 35957 ft 429 kts 211°
2026-04-17 21:40 -18.22178 -45.45808 35960 ft 428 kts 211°
2026-04-17 21:41 -18.27511 -45.48593 35965 ft 427 kts 211°
2026-04-17 21:41 -18.32833 -45.51371 35964 ft 427 kts 211°
2026-04-17 21:42 -18.38122 -45.54138 35964 ft 426 kts 211°
2026-04-17 21:42 -18.43444 -45.56922 35966 ft 426 kts 211°
2026-04-17 21:43 -18.48688 -45.59817 35970 ft 424 kts 213°
2026-04-17 21:43 -18.53900 -45.62774 35975 ft 424 kts 213°
2026-04-17 21:44 -18.59085 -45.65709 35985 ft 423 kts 213°
2026-04-17 21:44 -18.64306 -45.68661 35989 ft 422 kts 213°
2026-04-17 21:45 -18.69455 -45.71572 35994 ft 421 kts 213°
2026-04-17 21:45 -18.74612 -45.74490 36003 ft 419 kts 213°
2026-04-17 21:46 -18.79767 -45.77411 36002 ft 419 kts 213°
2026-04-17 21:46 -18.84915 -45.80327 36000 ft 419 kts 213°
2026-04-17 21:47 -18.90060 -45.83239 36000 ft 419 kts 213°
2026-04-17 21:47 -18.95195 -45.86156 36001 ft 418 kts 213°
2026-04-17 21:48 -19.00312 -45.89064 36002 ft 416 kts 213°
2026-04-17 21:48 -19.05414 -45.91969 36005 ft 415 kts 213°
2026-04-17 21:49 -19.10474 -45.94855 36010 ft 415 kts 213°
2026-04-17 21:49 -19.15615 -45.97783 36009 ft 415 kts 213°
2026-04-17 21:50 -19.20686 -46.00662 36011 ft 414 kts 213°
2026-04-17 21:50 -19.25765 -46.03552 36009 ft 414 kts 213°
2026-04-17 21:51 -19.30839 -46.06442 36009 ft 414 kts 213°
2026-04-17 21:51 -19.35911 -46.09339 36003 ft 413 kts 213°
2026-04-17 21:52 -19.40977 -46.12231 36003 ft 412 kts 213°
2026-04-17 21:52 -19.46041 -46.15103 36001 ft 414 kts 210°
2026-04-17 21:53 -19.51633 -46.16795 36007 ft 429 kts 194°
2026-04-17 21:53 -19.57686 -46.17020 36006 ft 436 kts 187°
2026-04-17 21:54 -19.63777 -46.16972 36007 ft 436 kts 187°
2026-04-17 21:54 -19.69866 -46.16939 36006 ft 437 kts 187°
2026-04-17 21:55 -19.75954 -46.16919 36006 ft 436 kts 187°
2026-04-17 21:55 -19.82031 -46.16900 36007 ft 435 kts 187°
2026-04-17 21:56 -19.88045 -46.16989 36012 ft 434 kts 188°
2026-04-17 21:56 -19.94107 -46.17106 36005 ft 434 kts 188°
2026-04-17 21:57 -20.00168 -46.17217 36009 ft 434 kts 188°
2026-04-17 21:57 -20.06226 -46.17327 36003 ft 435 kts 188°
2026-04-17 21:58 -20.12289 -46.17435 35999 ft 435 kts 188°
2026-04-17 21:58 -20.18363 -46.17543 35998 ft 434 kts 188°
2026-04-17 21:59 -20.24418 -46.17651 35995 ft 434 kts 189°
2026-04-17 21:59 -20.30478 -46.17761 35992 ft 435 kts 189°
2026-04-17 22:00 -20.36549 -46.17871 35995 ft 435 kts 189°
2026-04-17 22:00 -20.42609 -46.17980 35999 ft 434 kts 189°
2026-04-17 22:01 -20.48639 -46.18088 36003 ft 436 kts 189°
2026-04-17 22:01 -20.54720 -46.18196 36007 ft 436 kts 189°
2026-04-17 22:02 -20.60800 -46.18308 36005 ft 436 kts 189°
2026-04-17 22:02 -20.66876 -46.18420 36002 ft 435 kts 189°
2026-04-17 22:03 -20.72956 -46.18529 35997 ft 437 kts 189°
2026-04-17 22:03 -20.79051 -46.18636 35991 ft 438 kts 189°
2026-04-17 22:04 -20.85150 -46.18743 35995 ft 437 kts 189°
2026-04-17 22:04 -20.91241 -46.18846 36001 ft 437 kts 189°
2026-04-17 22:05 -20.97297 -46.18951 36006 ft 438 kts 189°
2026-04-17 22:05 -21.03406 -46.19060 36017 ft 438 kts 189°
2026-04-17 22:06 -21.09516 -46.19167 36009 ft 438 kts 189°
2026-04-17 22:06 -21.15632 -46.19276 36011 ft 438 kts 189°
2026-04-17 22:07 -21.21755 -46.19385 36006 ft 439 kts 189°
2026-04-17 22:07 -21.27876 -46.19493 36010 ft 439 kts 189°
2026-04-17 22:08 -21.34002 -46.19602 36013 ft 440 kts 189°
2026-04-17 22:08 -21.40130 -46.19713 36021 ft 439 kts 189°
2026-04-17 22:09 -21.46256 -46.19835 36022 ft 437 kts 192°
2026-04-17 22:09 -21.52135 -46.20966 36025 ft 425 kts 201°
2026-04-17 22:10 -21.57909 -46.22439 36022 ft 426 kts 201°
2026-04-17 22:10 -21.63696 -46.23908 36032 ft 426 kts 201°
2026-04-17 22:11 -21.69442 -46.25353 36047 ft 426 kts 201°
2026-04-17 22:11 -21.75225 -46.26800 36055 ft 426 kts 201°
2026-04-17 22:12 -21.81011 -46.28248 36060 ft 426 kts 201°
2026-04-17 22:12 -21.86818 -46.29703 36057 ft 428 kts 201°
2026-04-17 22:13 -21.92628 -46.31160 36060 ft 428 kts 201°
2026-04-17 22:13 -21.98403 -46.32604 35781 ft 421 kts 201°
2026-04-17 22:13 -22.01265 -46.33324 34961 ft 424 kts 201°
2026-04-17 22:14 -22.04113 -46.34046 33891 ft 431 kts 201°
2026-04-17 22:14 -22.07054 -46.34793 32777 ft 439 kts 200°
2026-04-17 22:14 -22.10036 -46.35546 32007 ft 439 kts 200°
2026-04-17 22:14 -22.13021 -46.36293 31466 ft 434 kts 200°
2026-04-17 22:15 -22.15979 -46.37033 30888 ft 430 kts 199°
2026-04-17 22:15 -22.18880 -46.37763 29984 ft 436 kts 199°
2026-04-17 22:15 -22.21689 -46.38475 28972 ft 443 kts 199°
2026-04-17 22:15 -22.24696 -46.39237 28033 ft 444 kts 198°
2026-04-17 22:16 -22.27694 -46.39989 27355 ft 439 kts 198°
2026-04-17 22:16 -22.30648 -46.40749 26710 ft 433 kts 198°
2026-04-17 22:16 -22.33563 -46.41515 26032 ft 429 kts 198°
2026-04-17 22:16 -22.36451 -46.42280 25358 ft 425 kts 198°
2026-04-17 22:17 -22.39267 -46.43025 24708 ft 420 kts 198°
2026-04-17 22:17 -22.42097 -46.43773 24045 ft 416 kts 198°
2026-04-17 22:17 -22.44901 -46.44516 23379 ft 413 kts 197°
2026-04-17 22:17 -22.47679 -46.45251 22751 ft 408 kts 197°
2026-04-17 22:18 -22.50431 -46.45977 22130 ft 405 kts 196°
2026-04-17 22:18 -22.53157 -46.46694 21535 ft 401 kts 197°
2026-04-17 22:18 -22.55860 -46.47405 20920 ft 398 kts 196°
2026-04-17 22:18 -22.58543 -46.48115 20319 ft 395 kts 196°
2026-04-17 22:19 -22.61204 -46.48819 19725 ft 392 kts 196°
2026-04-17 22:19 -22.63845 -46.49519 19130 ft 389 kts 195°
2026-04-17 22:19 -22.66467 -46.50214 18561 ft 386 kts 195°
2026-04-17 22:19 -22.69068 -46.50903 17998 ft 383 kts 195°
2026-04-17 22:20 -22.71615 -46.51577 17441 ft 380 kts 195°
2026-04-17 22:20 -22.74190 -46.52258 16899 ft 377 kts 195°
2026-04-17 22:20 -22.76725 -46.52927 16362 ft 374 kts 195°
2026-04-17 22:20 -22.79249 -46.53595 15843 ft 371 kts 195°
2026-04-17 22:21 -22.81761 -46.54259 15320 ft 368 kts 194°
2026-04-17 22:21 -22.84247 -46.54918 14783 ft 366 kts 194°
2026-04-17 22:21 -22.86721 -46.55575 14268 ft 363 kts 194°
2026-04-17 22:21 -22.89166 -46.56223 13750 ft 360 kts 194°
2026-04-17 22:22 -22.91596 -46.56869 13213 ft 357 kts 194°
2026-04-17 22:22 -22.94004 -46.57509 12689 ft 354 kts 194°
2026-04-17 22:22 -22.96360 -46.58134 12157 ft 352 kts 194°
2026-04-17 22:22 -22.98736 -46.58765 11636 ft 349 kts 194°
2026-04-17 22:23 -23.01059 -46.59383 11411 ft 336 kts 194°
2026-04-17 22:23 -23.03299 -46.59978 11144 ft 326 kts 194°
2026-04-17 22:23 -23.05496 -46.60564 10712 ft 323 kts 194°
2026-04-17 22:23 -23.07677 -46.61146 10240 ft 321 kts 194°
2026-04-17 22:24 -23.09842 -46.61724 9770 ft 319 kts 194°
2026-04-17 22:24 -23.12000 -46.62300 9293 ft 317 kts 195°
2026-04-17 22:24 -23.14144 -46.62872 8817 ft 316 kts 195°
2026-04-17 22:24 -23.16276 -46.63440 8362 ft 313 kts 195°
2026-04-17 22:25 -23.18370 -46.63999 8144 ft 303 kts 195°
2026-04-17 22:25 -23.20065 -46.64451 7980 ft 294 kts 195°
2026-04-17 22:25 -23.21024 -46.64706 7886 ft 289 kts 195°
2026-04-17 22:26 -23.24964 -46.65757 7531 ft 270 kts 195°
2026-04-17 22:26 -23.26763 -46.66235 7363 ft 261 kts 195°
2026-04-17 22:26 -23.28506 -46.66699 7207 ft 253 kts 195°
2026-04-17 22:26 -23.30193 -46.67147 7073 ft 244 kts 195°
2026-04-17 22:27 -23.31736 -46.67559 6961 ft 243 kts 195°
2026-04-17 22:27 -23.33274 -46.67970 6848 ft 243 kts 195°
2026-04-17 22:27 -23.34775 -46.68370 6738 ft 243 kts 195°
2026-04-17 22:27 -23.36341 -46.68788 6623 ft 243 kts 195°
2026-04-17 22:28 -23.37967 -46.69220 6495 ft 235 kts 196°
2026-04-17 22:28 -23.39541 -46.69639 6364 ft 227 kts 196°
2026-04-17 22:28 -23.41052 -46.70041 6235 ft 218 kts 196°
2026-04-17 22:28 -23.42520 -46.70236 6067 ft 215 kts 170°
2026-04-17 22:29 -23.43808 -46.69446 5812 ft 216 kts 130°
2026-04-17 22:29 -23.44615 -46.68075 5581 ft 215 kts 120°
2026-04-17 22:29 -23.45276 -46.66756 5389 ft 214 kts 121°
2026-04-17 22:29 -23.45950 -46.65492 5241 ft 213 kts 122°
2026-04-17 22:30 -23.46716 -46.64159 5209 ft 199 kts 124°
2026-04-17 22:30 -23.47215 -46.62809 5032 ft 193 kts 94°
2026-04-17 22:30 -23.47040 -46.61362 4803 ft 193 kts 75°
2026-04-17 22:30 -23.46638 -46.59984 4553 ft 190 kts 71°
2026-04-17 22:31 -23.46221 -46.58633 4303 ft 186 kts 72°
2026-04-17 22:31 -23.45853 -46.57348 4080 ft 173 kts 73°
2026-04-17 22:31 -23.45524 -46.56131 3848 ft 162 kts 74°
2026-04-17 22:31 -23.45220 -46.54990 3644 ft 154 kts 74°
2026-04-17 22:32 -23.44919 -46.53864 3467 ft 153 kts 73°
2026-04-17 22:32 -23.44620 -46.52753 3285 ft 152 kts 73°
2026-04-17 22:32 -23.44323 -46.51652 3096 ft 152 kts 74°
2026-04-17 22:32 -23.44025 -46.50550 2901 ft 151 kts 73°
2026-04-17 22:33 -23.43733 -46.49458 2713 ft 151 kts 74°
2026-04-17 22:33 -23.43436 -46.48361 2523 ft 150 kts 73°
2026-04-17 22:33 -23.43154 -46.47308 2469 ft 136 kts 72°
2026-04-17 22:33 -23.42931 -46.46491 2469 ft 87 kts 74°
2026-04-17 22:34 -23.42814 -46.46053 2469 ft 25 kts 73°
2026-04-17 22:34 -23.42774 -46.46008 2470 ft 8 kts 342°
2026-04-17 22:34 -23.42711 -46.46028 2470 ft 10 kts 343°
2026-04-17 22:34 -23.42640 -46.46051 2470 ft 11 kts 344°
2026-04-17 22:35 -23.42573 -46.46092 2470 ft 11 kts 287°
2026-04-17 22:35 -23.42591 -46.46183 2470 ft 12 kts 254°
2026-04-17 22:35 -23.42617 -46.46278 2470 ft 13 kts 254°
2026-04-17 22:35 -23.42644 -46.46380 2469 ft 14 kts 254°
2026-04-17 22:36 -23.42672 -46.46485 2469 ft 14 kts 254°
2026-04-17 22:36 -23.42703 -46.46596 2469 ft 15 kts 254°
2026-04-17 22:36 -23.42732 -46.46707 2469 ft 15 kts 254°
2026-04-17 22:36 -23.42761 -46.46815 2469 ft 14 kts 254°
2026-04-17 22:37 -23.42789 -46.46917 2469 ft 13 kts 254°
2026-04-17 22:37 -23.42816 -46.47016 2469 ft 13 kts 253°
2026-04-17 22:37 -23.42842 -46.47111 2469 ft 12 kts 253°
2026-04-17 22:37 -23.42868 -46.47209 2469 ft 14 kts 254°
2026-04-17 22:38 -23.42898 -46.47319 2469 ft 15 kts 253°
2026-04-17 22:38 -23.42927 -46.47428 2469 ft 14 kts 254°
2026-04-17 22:38 -23.42954 -46.47529 2469 ft 13 kts 254°
2026-04-17 22:38 -23.42981 -46.47628 2469 ft 13 kts 253°
2026-04-17 22:39 -23.43007 -46.47722 2468 ft 12 kts 254°
2026-04-17 22:39 -23.43031 -46.47813 2469 ft 12 kts 253°
2026-04-17 22:39 -23.43079 -46.47987 2468 ft 11 kts 254°
2026-04-17 22:40 -23.43101 -46.48070 2468 ft 11 kts 256°
2026-04-17 22:40 -23.43063 -46.48130 2468 ft 11 kts 351°
2026-04-17 22:40 -23.42987 -46.48138 2468 ft 9 kts 353°
2026-04-17 22:40 -23.42944 -46.48187 2468 ft 7 kts 294°
2026-04-17 22:41 -23.42929 -46.48224 2468 ft 0 kts 295°
2026-04-17 22:41 -23.42928 -46.48225 2468 ft 0 kts 295°